Regional Weather Roundup
Issued by NWS

Home | Current Version | Previous Version | Text Only | Print | Product List | Glossary Off
Versions: 1 2 3 4 5 6 7 8 9 10 11 12 13 14 15 16 17 18 19 20 21 22 23 24 25 26 27 28 29 30 31 32 33 34 35 36 37 38 39 40 41 42 43 44 45 46 47 48 49 50

000
ASUS43 KLOT 241809
RWRIL

ILLINOIS REGIONAL WEATHER ROUNDUP
NATIONAL WEATHER SERVICE CHICAGO/ROMEOVILLE IL
100 PM CDT MON JUL 24 2017

NOTE: "FAIR" INDICATES FEW OR NO CLOUDS BELOW 12,000 FEET WITH NO
SIGNIFICANT WEATHER AND/OR OBSTRUCTIONS TO VISIBILITY.

* THESE STATIONS ARE NOT UNDER NWS QUALITY CONTROL. THEY ALSO MAY NOT
  REPORT WEATHER SUCH AS PRECIPITATION OR FOG.

ILZ001-002-007-009-015-016-024-241900-
NORTHWEST ILLINOIS

CITY           SKY/WX    TMP DP  RH WIND       PRES   REMARKS
MOLINE         CLOUDY    73  64  73 VRB5      30.04S
6HR MIN TEMP:  69; 6HR MAX TEMP:  73;

STERLING*      CLOUDY    72  63  73 NE7       30.06S
SAVANNA*       CLOUDY    73  61  66 E8        30.06S
$$

ILZ003-004-008-010-011-017-018-241900-
NORTH CENTRAL ILLINOIS

CITY           SKY/WX    TMP DP  RH WIND       PRES   REMARKS
ROCKFORD       PTSUNNY   73  58  59 E10       30.08R
6HR MIN TEMP:  66; 6HR MAX TEMP:  75;

FREEPORT*      CLOUDY    73  59  62 NE8       30.08S
ROCHELLE*      PTSUNNY   72  62  71 NE9       30.06S
DE KALB*       CLOUDY    70  61  73 N9        30.07S
PERU*          CLOUDY   N/A N/A N/A N7        30.05S
$$

ILZ005-006-012>014-019>023-241900-
NORTHEAST ILLINOIS

CITY           SKY/WX    TMP DP  RH WIND       PRES   REMARKS
CHICAGO-OHARE  PTSUNNY   72  56  57 NE13      30.06R
6HR MIN TEMP:  66; 6HR MAX TEMP:  74;

CHICAGO-MIDWAY PTSUNNY   72  57  59 NE12      30.05R
6HR MIN TEMP:  69; 6HR MAX TEMP:  73;

AURORA         MOSUNNY   74  62  66 N13       30.06R
6HR MIN TEMP:  65; 6HR MAX TEMP:  74;

LANSING*       CLOUDY    71  58  63 N12       30.04R
JOLIET*        PTSUNNY   74  61  64 N6G18     30.04S
WAUKEGAN       MOSUNNY   69  59  70 NE10G20   30.06R
6HR MIN TEMP:  64; 6HR MAX TEMP:  70;

DUPAGE AIRPORT CLOUDY    71  60  68 N13G18    30.05S
6HR MIN TEMP:  64; 6HR MAX TEMP:  73;

WHEELING       PTSUNNY   69  59  70 N8        30.07S
6HR MIN TEMP:  66; 6HR MAX TEMP:  69;

MORRIS*        CLOUDY    74  61  64 N3        30.02S
ROMEOVILLE*    CLOUDY    72  57  59 NE10      30.04F
NORTHERLY ISL    N/A     69  56  62 N13         N/A
$$

LMZ740>746-241900-
SOUTHERN LAKE MICHIGAN

STATION/POSITION SKY/WX   TEMP    WIND        PRES    VSBY  WAVE
                          AIR SEA DIR/SP/G                  HT/PER
                          (F)     (DEG/KT/KT) (MB)    (MI)  (FT/S)
SOUTHERN BUOY              65 70   20/ 12/ 14 1017.1          4/ 7
WILMETTE HARBOR            67 72   10/ 14/ 17   N/A           5/ 6
HARRISON CRIB              68      20/ 15/ 17   N/A
BURNHAM HARBOR             70                   N/A
CALUMET HARBOR             69     350/ 12/ 14 1017.1R
BURNS HARBOR               69      20/ 12/ 16 1017.3R
MICHIGAN CITY              67      10/ 15/ 16   N/A
MICHIGAN CITY 6N           68 74   30/ 12/ 16   N/A           5/ 6
ST. JOSEPH                 67 73   30/ 12/ 16 1016.8          5/ 6
$$

ILZ025>027-034>036-040-047-049-050-058-095>099-241900-
WEST-CENTRAL ILLINOIS

CITY           SKY/WX    TMP DP  RH WIND       PRES   REMARKS
QUINCY         SUNNY     83  60  45 N7        30.00S HX  83
GALESBURG*     CLOUDY    74  66  76 N9        30.05R
MACOMB*        PTSUNNY   78  68  72 E8        30.04S HX  80
JACKSONVILLE*  MOSUNNY   81  68  64 NE12      29.99S HX  84
PITTSFIELD*    MOSUNNY   82  64  55 N6        30.01S HX  83
$$

ILZ028>032-037-038-041>044-048-051>054-059>061-241900-
CENTRAL ILLINOIS

CITY           SKY/WX    TMP DP  RH WIND       PRES   REMARKS
PONTIAC        CLOUDY    75  67  76 NE8       30.03S
BLOOMINGTON    CLOUDY    74  65  73 NE10      30.04S
DECATUR        PTSUNNY   80  68  66 NE12      30.00S HX  83
PEORIA         CLOUDY    73  66  78 VRB6      30.03S
6HR MIN TEMP:  68; 6HR MAX TEMP:  73;

LACON*         CLOUDY    72  64  75 N3        30.03S
LINCOLN*       CLOUDY    75  68  80 N8        30.02S
SPRINGFIELD    MOSUNNY   82  71  69 NE13      30.00S HX  86
6HR MIN TEMP:  70; 6HR MAX TEMP:  82;

TAYLORVILLE    MOSUNNY   83  66  57 N5        29.99S HX  85
6HR MIN TEMP:  67; 6HR MAX TEMP:  83;

$$

ILZ033-039-045-046-055>057-062-063-241900-
EAST-CENTRAL ILLINOIS

CITY           SKY/WX    TMP DP  RH WIND       PRES   REMARKS
CHAMPAIGN      CLOUDY    77  67  71 NE8       30.01S
RANTOUL*       CLOUDY    77  66  69 NE8       30.01S
MATTOON        MOSUNNY   79  69  71 NE10      29.98S HX  81
PARIS*         PTSUNNY   78  70  77 N7        30.00S HX  80
$$

ILZ079-100>102-241900-
SOUTHWEST ILLINOIS

CITY           SKY/WX    TMP DP  RH WIND       PRES   REMARKS
ALTON          MOSUNNY   82  70  65 N7        29.98S HX  86
BELLEVILLE     MOSUNNY   86  68  54 NE7       29.98S HX  89
CAHOKIA*       SUNNY     89  63  41 NE5       29.96S HX  90
SPARTA*        PTSUNNY   86  68  53 CALM      29.97F HX  89
$$

ILZ064>066-069>071-074>076-080>082-084>086-088>090-092>094-241900-
SOUTH-CENTRAL ILLINOIS

CITY           SKY/WX    TMP DP  RH WIND       PRES   REMARKS
CARBONDALE     SUNNY     88  75  65 VRB5      29.95F HX  97
6HR MIN TEMP:  72; 6HR MAX TEMP:  88;

CAIRO*         MOSUNNY   88  75  65 SW3       29.94S HX  98
EFFINGHAM*     PTSUNNY   83  68  61 CALM      29.99S HX  86
MARION         MOSUNNY   88  72  58 CALM      29.96S HX  94
MT. VERNON     SUNNY     87  67  51 CALM      29.96S HX  90
CENTRALIA*     SUNNY     86  69  56 N6        29.96S HX  91
SALEM*         SUNNY     86  68  55 N5        29.97S HX  89
METROPOLIS*    CLOUDY    89  74  60 W3        29.95S HX  98
$$

ILZ067-068-072-073-078-083-087-091-241900-
SOUTHEAST ILLINOIS

CITY           SKY/WX    TMP DP  RH WIND       PRES   REMARKS
LAWRENCEVILLE  MOSUNNY   85  70  60 N7        29.96S HX  89
FLORA*         MOSUNNY   87  67  51 CALM      29.97S HX  89
FAIRFIELD*     SUNNY     85  67  55 CALM      29.95S HX  88
HARRISBURG*    MOSUNNY   89  75  63 CALM      29.95S HX  98
ROBINSON*      MOSUNNY   80  70  70 NE6       29.97S HX  83
CARMI*         SUNNY     86  75  68 CALM      29.94S HX  95
$$

ABBREVIATIONS USED IN REMARKS
   TC - TEMPERATURE IN CELSIUS
  WCI - WIND CHILL INDEX
   HX - HEAT INDEX
  VSB - VISIBILITY
$$




USA.gov is the U.S. government's official web portal to all federal, state and local government web resources and services.